Location: City of Moscow
(46.7306°N, 116.9989°W)
Time: 00:41:05
(UTC+00:00)

Tiangong - Pass Details

Date: 16 February 2026
Orbit: 381 x 391 km, 41.5° (Epoch: 7 March)

Event Time Altitude Azimuth Distance (km) Brightness Sun altitude
Rises 03:46:07 0° 263° (W) 2,252 2.9 -26.7°
Reaches altitude 10° 03:48:24 10° 249° (WSW) 1,396 1.4 -27.1°
Enters shadow 03:48:58 13° 243° (WSW) 1,209 0.9 -27.2°
